Theta_e
306 307 307 305 303 304 304 307 308 309 309 310 310 310 310 310 309 308 306 307 306 308 312 313 314 315 315 315 313 309 311 312 314 315 316 316 318 318 319 320 319 322 344 348 354
305 304 303 302 302 300 301 302 306 308 309 309 310 310 309 309 308 307 308 308 307 310 312 314 315 314 314 315 315 314 310 311 311 315 315 315 316 316 317 317 318 321 345 355 354
298 298 297 297 298 298 298 299 302 307 309 309 309 309 309 308 305 305 315 313 312 309 313 314 313 313 314 314 316 315 315 313 314 313 314 315 317 317 317 316 319 318 339 356 354
298 298 299 299 299 300 300 300 301 305 308 309 309 308 308 308 307 316 315 314 310 313 314 313 310 311 311 312 313 318 316 315 315 315 316 316 316 317 315 316 316 315 320 354 353
300 299 300 302 302 304 306 304 302 304 307 309 309 308 307 307 307 308 315 315 316 316 318 310 309 309 310 309 311 315 316 317 316 315 315 315 317 317 317 317 315 315 317 349 351
301 301 303 304 303 306 305 304 303 304 308 309 309 308 307 309 308 315 317 316 319 317 317 309 310 308 310 310 311 313 314 316 317 316 316 318 318 316 319 318 314 313 313 335 350
301 300 302 303 305 305 304 304 305 310 310 310 309 308 308 308 310 310 314 317 315 316 314 313 312 311 310 313 310 312 313 313 312 314 314 316 316 317 318 317 314 313 313 318 345
301 299 300 303 305 304 304 305 310 312 310 311 310 309 309 310 312 314 315 314 318 315 318 315 313 315 319 318 319 317 317 320 317 315 315 317 320 320 318 318 316 314 312 314 321
304 303 303 304 304 303 304 308 311 310 312 311 310 309 311 312 313 314 315 311 312 316 313 315 314 315 312 316 315 316 319 320 320 318 318 317 318 318 318 317 317 316 313 313 313
303 301 302 301 303 301 304 310 311 312 313 311 312 311 309 310 311 311 311 313 312 311 310 310 308 310 311 314 318 319 320 319 320 318 318 319 319 317 317 318 317 316 318 313 313
302 301 299 300 302 301 308 311 308 308 311 312 310 311 311 311 311 311 311 312 311 311 310 311 309 311 311 313 315 317 318 320 319 318 317 319 319 318 316 316 316 316 315 314 314
304 300 300 299 302 304 304 306 311 310 310 309 309 309 310 310 310 311 308 310 310 311 313 318 313 311 310 312 314 315 316 317 317 318 318 318 318 317 316 316 316 316 315 313 312
302 299 298 300 302 307 303 310 310 309 309 310 311 310 305 308 309 306 306 312 313 315 313 316 318 318 314 313 314 314 315 315 316 316 315 316 316 315 315 315 315 316 316 315 314
302 300 298 300 304 303 306 309 309 309 310 313 308 304 304 305 307 306 306 309 312 316 317 317 315 317 317 319 317 318 315 317 320 320 319 314 317 314 314 314 314 315 314 315 315
301 301 299 302 302 303 308 309 308 309 311 311 306 305 304 304 305 306 306 307 310 308 312 315 317 317 318 317 319 318 320 322 321 323 322 322 319 319 313 314 314 314 315 315 314
302 302 301 304 302 308 309 309 308 313 315 311 307 305 304 306 307 305 306 306 306 306 313 313 313 313 316 317 317 319 319 320 321 322 329 323 320 321 318 314 315 315 315 316 315
302 303 304 303 305 307 309 304 308 314 314 313 308 307 304 305 306 306 306 304 305 306 308 306 309 313 316 315 315 317 320 319 326 328 326 321 322 321 318 315 313 313 313 313 314
303 304 306 305 305 307 307 305 312 314 315 309 308 306 305 306 306 306 306 305 307 309 310 309 310 311 310 312 313 316 319 318 324 327 324 321 326 322 318 317 317 315 312 313 314
302 304 306 305 304 308 302 306 310 309 308 308 308 307 306 307 306 306 306 306 310 309 310 311 313 313 313 315 317 318 320 317 321 322 323 322 320 318 317 317 315 313 314 312 314
300 300 305 304 304 305 303 308 306 306 308 309 310 309 310 307 307 306 307 308 311 310 309 312 312 313 315 314 317 320 318 321 318 321 325 322 321 320 316 315 320 322 321 321 322
300 299 305 304 304 300 302 303 305 306 308 310 310 310 307 307 307 307 308 308 311 311 310 312 312 315 313 316 318 319 320 319 316 317 319 319 317 315 316 324 325 323 323 322 321
297 301 304 302 300 298 301 303 305 305 306 306 306 307 307 307 308 308 309 309 307 310 311 311 314 315 316 316 318 320 320 318 317 318 320 318 318 323 324 325 325 324 323 321 321
300 297 304 300 299 299 301 302 303 305 305 304 305 306 306 306 308 308 308 308 308 310 313 312 316 314 310 317 316 318 317 318 320 322 322 320 318 317 320 321 322 322 321 322 323
298 301 297 295 297 299 300 301 302 304 304 303 304 305 304 307 306 309 308 308 308 308 310 311 314 311 310 310 313 316 317 318 317 317 319 323 320 317 317 318 320 319 318 321 322
295 298 298 298 297 298 299 300 302 304 304 302 305 304 306 307 307 308 309 308 307 308 309 311 316 312 313 314 313 315 315 314 315 315 318 316 321 319 319 323 322 322 321 322 323
294 295 295 296 297 298 298 300 302 303 302 303 304 304 305 308 308 308 310 308 308 307 307 305 313 311 311 312 313 315 315 315 315 315 315 316 317 316 317 325 326 324 322 323 327
297 298 295 298 297 297 297 299 300 301 302 303 303 305 306 307 306 306 306 306 306 306 306 307 305 306 310 312 312 316 318 321 323 323 318 317 318 317 327 328 328 329 321 328 327
Wind_Speed
23 23 24 26 27 27 28 27 25 23 22 21 21 21 22 24 27 25 11 16 9 15 14 8 5 9 6 3 4 5 1 6 8 11 5 2 2 4 4 3 6 5 7 3 29
25 26 27 28 29 30 31 30 27 24 23 22 21 20 21 23 29 16 16 11 8 14 18 11 5 7 4 6 4 5 5 11 8 17 7 4 2 5 6 9 5 8 6 24 31
30 31 33 35 34 36 36 36 32 26 23 21 19 18 18 19 7 7 1 7 18 18 13 8 6 6 3 3 6 7 12 11 2 8 5 9 9 4 4 7 5 4 6 16 22
34 35 36 37 36 38 38 39 37 30 23 19 16 14 13 5 5 1 4 7 18 19 13 5 3 6 6 7 6 5 10 15 3 6 3 4 4 6 7 16 7 10 6 13 19
36 36 37 38 38 39 38 39 41 32 23 17 13 9 5 2 11 4 6 4 12 19 15 8 6 6 7 6 5 7 4 5 11 12 10 9 16 7 22 21 7 14 6 15 15
38 38 38 39 40 43 41 43 41 32 24 17 9 4 2 5 3 6 8 7 9 24 13 8 8 7 4 5 6 4 7 14 10 9 6 10 7 6 27 11 9 11 11 11 18
40 41 41 42 43 45 43 45 35 28 21 11 7 6 5 14 5 0 5 14 12 21 6 18 14 6 4 4 7 4 8 11 7 5 7 9 12 25 18 14 7 10 10 9 15
41 43 44 45 45 45 45 38 31 16 11 6 9 6 8 9 14 17 14 19 18 22 16 18 20 6 3 5 6 4 3 1 5 8 8 8 25 26 9 8 10 10 10 9 9
42 43 44 46 46 46 45 27 16 8 9 12 8 4 11 12 6 16 4 9 24 24 20 19 6 7 3 2 5 0 5 4 7 0 3 13 25 6 8 9 9 8 8 10 8
43 45 47 49 46 49 32 19 4 4 6 5 2 3 7 10 23 24 19 11 5 5 5 7 4 5 3 3 10 5 6 5 6 5 8 16 25 8 3 7 10 9 9 9 8
45 49 50 49 48 41 22 5 5 2 2 6 12 8 21 15 19 10 18 4 3 1 5 4 4 12 8 10 11 8 13 14 11 6 7 15 21 12 6 9 9 10 9 9 10
47 49 51 52 47 21 14 3 0 10 8 11 19 9 25 12 1 12 23 3 0 7 4 2 11 10 13 10 11 11 13 16 15 15 13 20 28 16 12 13 8 10 10 11 9
48 50 51 52 38 2 18 3 17 22 3 8 3 2 5 1 3 15 17 6 3 5 6 14 8 14 11 13 13 14 14 13 11 12 12 16 24 15 9 11 13 8 9 10 14
51 51 54 47 9 20 7 12 24 9 3 6 4 4 10 5 3 15 14 5 4 4 5 7 3 11 10 10 8 13 11 9 11 4 5 5 14 10 6 12 10 14 9 13 14
52 53 49 19 13 8 10 25 24 3 3 3 6 3 7 7 8 8 13 4 3 12 5 7 11 11 12 12 7 15 5 4 8 6 3 4 4 4 7 7 9 10 11 10 12
53 54 33 9 6 8 18 22 4 4 6 5 12 9 4 5 8 6 4 5 9 5 12 14 3 3 6 12 11 2 4 1 1 5 6 12 7 9 9 9 7 6 9 9 9
53 47 17 9 5 13 20 6 4 1 13 12 19 19 5 8 10 10 10 9 3 5 3 11 15 9 9 18 11 4 4 2 3 6 6 9 8 16 9 9 11 11 10 10 9
52 36 13 24 26 17 9 6 3 4 3 17 16 13 5 12 8 11 12 8 5 6 6 4 5 9 12 22 13 9 13 5 6 4 2 2 6 12 16 14 14 13 11 10 8
47 29 13 33 26 3 5 4 2 9 12 13 17 5 3 9 4 6 5 3 1 3 3 5 5 7 7 5 7 4 8 10 4 2 1 4 7 17 6 11 7 11 10 8 8
29 14 16 34 14 2 4 3 5 10 13 9 7 7 5 9 6 8 4 3 3 3 4 5 6 8 5 3 5 5 5 4 1 4 4 5 5 14 3 2 3 4 7 7 7
8 4 23 33 8 6 3 4 5 12 6 5 4 4 6 11 4 4 6 10 3 5 7 7 7 4 3 4 2 1 1 2 3 3 4 2 7 5 8 4 4 6 7 8 8
8 4 24 23 5 3 3 9 13 13 8 4 6 4 3 8 5 5 6 3 15 4 9 3 5 4 6 4 2 2 0 4 3 3 4 3 11 5 6 5 5 7 8 8 7
4 3 11 11 4 3 5 7 7 10 10 8 6 4 4 7 6 7 7 5 14 7 4 4 3 3 6 6 3 4 1 2 3 0 9 2 6 4 6 6 7 6 8 7 7
2 5 4 4 2 2 4 4 11 8 9 14 8 4 11 11 10 7 12 8 13 18 24 5 4 5 4 3 1 3 5 4 4 3 3 10 20 13 10 11 9 6 8 8 7
3 1 1 4 4 6 4 4 8 10 5 9 4 11 14 8 14 8 5 17 16 17 2 3 4 3 8 10 9 12 15 13 13 14 10 8 9 13 9 8 7 6 7 10 6
2 3 4 4 5 6 5 3 7 14 4 9 9 21 18 9 12 23 15 14 6 5 5 6 4 4 5 11 10 12 11 11 14 15 15 17 24 18 14 5 6 9 6 6 4
6 3 2 4 4 3 3 4 13 13 10 8 15 18 17 14 20 25 22 19 15 8 4 5 2 3 4 7 11 7 4 6 9 12 11 15 13 11 3 3 4 6 1 5 9
Wind_Direction
355 350 347 347 346 343 340 332 325 323 320 316 315 313 313 312 307 300 251 243 214 234 203 167 165 165 154 192 187 128 142 230 214 197 226 181 133 304 309 238 340 266 234 179 143
355 354 351 347 346 346 343 338 331 323 320 318 315 315 316 319 310 252 283 246 200 173 181 180 164 154 171 185 204 165 181 222 201 218 205 181 110 346 322 317 299 310 345 136 144
360 357 355 354 352 351 347 345 337 325 318 316 315 315 318 327 314 249 99 143 163 169 171 172 136 145 211 168 196 194 234 246 234 240 242 265 277 220 295 294 199 343 324 157 159
1 358 355 353 349 349 347 342 337 328 318 313 309 314 316 319 301 282 175 144 168 176 183 180 146 161 193 207 218 234 237 242 239 203 238 253 283 273 239 250 286 271 319 185 173
359 356 353 350 348 345 341 338 335 327 315 304 301 306 336 301 247 289 189 183 172 176 189 176 163 156 185 199 212 241 263 235 242 242 253 273 265 274 271 257 253 285 259 199 203
356 353 349 345 345 344 341 337 331 327 312 296 283 256 184 281 301 334 206 197 200 185 190 170 199 200 213 224 185 242 231 259 265 254 244 254 266 218 257 260 213 228 229 224 201
354 352 349 345 343 342 339 335 330 325 312 275 230 196 238 244 266 338 239 227 209 192 170 211 217 189 187 282 241 279 289 293 235 209 234 199 252 236 249 296 225 221 246 219 211
351 350 347 344 342 340 336 332 331 329 324 171 169 180 247 283 315 302 261 235 232 221 229 220 206 217 184 299 321 288 256 239 297 192 213 162 258 247 168 224 245 230 235 218 222
349 347 345 343 343 340 334 335 334 357 67 128 144 186 272 314 303 340 305 240 221 221 236 247 159 198 239 195 317 254 272 282 315 359 308 198 258 260 187 219 243 237 222 237 198
348 347 346 344 344 343 335 341 20 34 79 152 143 281 270 323 315 307 289 252 240 222 206 201 194 199 54 119 242 247 255 232 247 284 235 252 260 291 317 254 250 234 234 228 201
348 347 346 346 342 343 343 359 3 345 230 226 253 249 280 281 300 322 327 186 160 206 216 212 175 229 206 211 231 255 265 266 262 286 323 276 282 289 271 250 250 238 234 221 233
348 348 345 344 339 340 356 351 177 299 298 263 260 245 260 282 321 12 14 17 268 239 222 271 226 215 216 226 229 239 252 263 272 264 258 272 277 276 261 259 235 225 236 223 231
348 347 344 340 337 10 327 251 343 352 314 302 226 171 2 306 81 25 22 339 39 12 304 240 236 218 215 227 232 237 243 254 253 265 257 273 277 269 253 259 247 231 220 231 222
347 345 344 337 345 335 311 341 336 344 29 281 356 358 2 302 48 26 11 338 338 319 346 279 299 261 240 236 218 247 238 263 292 240 247 154 277 262 242 242 230 241 218 228 227
345 345 345 346 300 316 324 335 341 86 328 39 28 82 351 45 322 17 354 350 188 267 156 239 300 308 283 252 212 257 136 240 284 302 279 261 271 271 180 244 247 235 242 223 227
343 344 344 353 293 326 336 332 350 58 251 5 1 340 3 33 328 312 50 334 282 243 242 247 221 227 284 273 242 151 227 291 242 238 231 231 194 265 238 205 245 253 242 232 226
342 346 347 334 326 324 337 0 33 162 350 351 337 333 350 348 329 357 349 351 336 306 17 320 254 237 215 280 260 166 118 274 248 211 234 226 213 248 288 259 227 243 260 253 244
341 350 31 10 353 329 352 24 14 12 1 319 331 320 354 9 341 339 331 329 53 55 317 270 300 213 211 218 232 193 197 184 218 226 276 226 214 258 219 252 242 250 251 263 265
341 352 15 356 351 41 65 21 289 10 331 322 327 306 333 354 322 345 307 258 83 78 2 291 259 289 302 250 175 191 193 222 199 199 293 206 263 281 204 251 231 244 254 265 274
340 333 4 356 350 68 75 282 341 2 334 314 311 20 335 325 316 330 294 224 289 210 59 263 279 260 269 316 245 198 174 115 273 179 220 240 230 233 357 284 205 317 293 298 298
10 15 0 353 46 44 72 298 319 342 11 320 316 282 280 330 300 288 264 286 164 273 310 258 214 256 320 202 231 189 180 74 126 138 214 242 252 218 210 224 271 277 272 282 280
359 4 3 9 48 12 359 317 301 339 335 331 283 279 24 322 283 274 248 261 299 7 315 334 306 252 244 357 242 110 169 169 144 190 236 262 255 181 165 202 220 275 278 287 271
347 281 355 38 65 354 303 295 321 352 332 5 291 4 13 306 296 253 263 271 315 338 317 337 309 331 333 354 29 57 121 117 92 171 237 203 271 192 237 235 218 266 284 277 284
27 355 330 31 73 48 322 294 346 336 303 339 275 321 341 300 274 277 273 287 340 298 290 290 265 206 209 193 139 272 220 201 162 208 268 241 264 256 300 308 293 263 283 271 259
25 13 325 315 342 328 300 311 338 346 313 308 283 325 312 290 298 260 247 308 304 290 296 227 280 291 271 278 279 263 263 259 234 232 235 257 272 270 253 274 277 293 306 279 296
58 23 351 284 298 332 326 326 326 330 288 294 318 313 307 275 278 291 291 301 269 343 5 351 298 332 285 260 261 273 269 257 247 248 242 255 275 277 272 268 307 295 300 284 318
13 318 141 266 308 337 269 357 311 326 297 267 310 311 307 299 303 289 279 266 246 265 294 297 311 337 266 334 311 281 260 258 261 262 247 229 241 293 306 296 293 312 341 357 38